Home   Weather   Osaka   Past weeks

Flag for Japan Past Weather in Osaka, Japan — Yesterday and Last 2 Weeks

Now
54 °F

Cool.


Feels Like: 53 °F
Forecast: 43 / 71 °F
Wind: 3 mph from Southeast

Location: Kansai International Airport

Current Time: Apr 24, 2017 at 3:06:32 am

Latest Report: Apr 24, 2017 at 2:30 am


Visibility: N/A

Pressure: 30.15 "Hg

Humidity: 67%

Dew Point: 43 °F

Location of OsakaLocation

Past Weather in Osaka — Graph

°F

Osaka Temperature Yesterday

Maximum temperature yesterday: 64 °F (at 12:30 pm)
Minimum temperature yesterday: 50 °F (at 4:00 am)
Average temperature yesterday: 57 °F

High & Low Weather Summary for the Past Weeks

 TemperatureHumidityPressure
High73 °F (Apr 16, 1:30 pm)100% (Apr 9, 2:00 am)30.15 "Hg (Apr 9, 2:00 am)
Low46 °F (Apr 13, 4:00 am)23% (Apr 14, 2:30 pm)29.27 "Hg (Apr 18, 12:37 am)
Average60 °F69%29.84 "Hg
* Reported Apr 9 2:00 am — Apr 24 2:00 am, Osaka, Weather by CustomWeather, © 2017

Note: Actual official high and low records may vary slightly from our data, if they occured in-between our weather recording intervals... More about our weather records

Advertising

Osaka Weather History for the Previous 24 Hours

Scroll right to see more
 ConditionsComfort  
Time TempWeatherWind HumidityBarometerVisibility
2:00 am
Mon, Apr 24
54 °FCool.8 mph72%30.15 "HgN/A
1:30 am55 °FRefreshingly cool.7 mph59%30.15 "HgN/A
1:00 am55 °FRefreshingly cool.6 mph59%30.15 "HgN/A
12:30 am55 °FRefreshingly cool.6 mph59%30.15 "HgN/A
12:00 am55 °FCool.6 mph63%30.15 "HgN/A
11:30 pm
Sun, Apr 23
57 °FRefreshingly cool.9 mph59%30.15 "HgN/A
11:00 pm57 °FRefreshingly cool.9 mph55%30.15 "HgN/A
10:00 pm57 °FClear.6 mph72%30.12 "Hg10 mi
9:00 pm59 °FClear.9 mph55%30.12 "Hg10 mi
8:30 pm59 °FClear.8 mph59%30.09 "Hg10 mi
8:00 pm59 °FClear.9 mph55%30.09 "Hg10 mi
7:30 pm59 °FClear.6 mph55%30.07 "Hg10 mi
7:00 pm59 °FClear.8 mph63%30.07 "Hg10 mi
6:30 pm61 °FPassing clouds.10 mph55%30.04 "HgN/A
6:00 pm61 °FPassing clouds.9 mph59%30.04 "HgN/A
5:30 pm63 °FPassing clouds.10 mph52%30.04 "HgN/A
5:00 pm64 °FPassing clouds.10 mph46%30.01 "HgN/A
4:30 pm64 °FPassing clouds.12 mph43%30.01 "HgN/A
4:00 pm64 °FPassing clouds.12 mph40%30.01 "HgN/A
3:30 pm64 °FPassing clouds.12 mph40%30.01 "HgN/A
3:00 pm64 °FPassing clouds.12 mph37%30.01 "HgN/A
2:30 pm64 °FPassing clouds.12 mph40%30.01 "HgN/A
2:00 pm63 °FPassing clouds.12 mph45%30.01 "HgN/A
1:00 pm63 °FPassing clouds.10 mph45%30.04 "HgN/A
12:30 pm64 °FPassing clouds.6 mph37%30.04 "HgN/A
12:00 pm63 °FPassing clouds.6 mph39%30.04 "HgN/A
11:30 am61 °FPassing clouds.5 mph42%30.07 "HgN/A
11:00 am59 °FPassing clouds.5 mph45%30.07 "HgN/A
10:30 am59 °FPassing clouds.7 mph45%30.07 "HgN/A
10:00 am57 °FPassing clouds.8 mph48%30.07 "HgN/A
9:30 am57 °FPassing clouds.9 mph51%30.07 "HgN/A
9:00 am57 °FPassing clouds.10 mph51%30.07 "HgN/A
8:30 am55 °FPassing clouds.9 mph55%30.07 "HgN/A
8:00 am55 °FPassing clouds.8 mph55%30.07 "HgN/A
7:30 am54 °FPassing clouds.9 mph58%30.04 "HgN/A
7:00 am54 °FPassing clouds.9 mph58%30.04 "HgN/A
6:30 am52 °FPassing clouds.9 mph62%30.04 "HgN/A
6:00 am52 °FPassing clouds.10 mph67%30.01 "HgN/A
5:30 am52 °FCool.14 mph62%29.98 "HgN/A
5:00 am50 °FPassing clouds.13 mph71%29.98 "HgN/A
4:00 am50 °FCool.9 mph67%29.98 "HgN/A
3:30 am52 °FCool.9 mph62%29.98 "HgN/A
3:00 am52 °FCool.9 mph58%29.95 "HgN/A
Weather by CustomWeather, © 2017

See weather overviewHow to use our weather pages